Regional Weather Roundup
Issued by NWS Little Rock, AR

Home | Current Version | Previous Version | Graphics & Text | Print | Product List | Glossary On
Versions: 1 2 3 4 5 6 7 8 9 10 11 12 13 14 15 16 17 18 19 20 21 22 23 24 25 26 27 28 29 30 31 32 33
000
ASUS44 KLZK 182005
RWRLZK

WEATHER ROUNDUP FOR ARKANSAS
NATIONAL WEATHER SERVICE LITTLE ROCK AR
300 PM CDT WED APR 18 2018

NOTE: "FAIR" INDICATES FEW OR NO CLOUDS BELOW 12,000 FEET WITH NO
SIGNIFICANT WEATHER AND/OR OBSTRUCTIONS TO VISIBILITY.

ARZ001-003-010-029-182100-
NORTHWEST ARKANSAS

CITY           SKY/WX    TMP DP  RH WIND       PRES   REMARKS
FAYETTEVILLE   SUNNY     67  38  34 NW15G26   30.01R
FORT SMITH     SUNNY     73  40  30 W24G31    29.99R
HARRISON       SUNNY     67  38  34 NW15G24   29.96R
BENTONVILLE    SUNNY     63  38  39 W20G30    30.03R
ROGERS         SUNNY     63  38  39 W20       30.01R
SILOAM SPGS    SUNNY     64  40  41 W18G28    30.03R
HIGHFILL       SUNNY     65  40  39 NW16G25   30.02R
SPRINGDALE     MOSUNNY   64  39  39 NW20G29   30.02S
$$

ARZ004-005-016-182100-
NORTH CENTRAL ARKANSAS

CITY           SKY/WX    TMP DP  RH WIND       PRES   REMARKS
BATESVILLE     SUNNY     82  37  20 NW9G24    29.84F
FLIPPIN        SUNNY     70  40  33 W16G30    29.93R
MTN HOME       SUNNY     68  39  34 NW12G28   29.92R
$$

ARZ040-041-182100-
WEST CENTRAL ARKANSAS

CITY           SKY/WX    TMP DP  RH WIND       PRES   REMARKS
MENA           SUNNY     77  41  27 W17G23    30.00F
MOUNT IDA      SUNNY     79  41  25 VRB7      29.94F
$$

ARZ009-017-025-026-028-182100-
NORTHEAST ARKANSAS

CITY           SKY/WX    TMP DP  RH WIND       PRES   REMARKS
CORNING        FAIR      77  45  31 W25G35    29.82R HAZE
JONESBORO      FAIR      79  42  26 W22G32    29.82R
NEWPORT        FAIR      83  41  22 W18G24    29.83S
WALNUT RIDGE   FAIR      80  43  26 NW17G25   29.83R
BLYTHEVILLE    FAIR      79  58  48 W14G30    29.80S
$$

ARZ022-023-033-042-044-182100-
CENTRAL ARKANSAS

CITY           SKY/WX    TMP DP  RH WIND       PRES   REMARKS
LITTLE ROCK    SUNNY     83  30  14 W20G30    29.90S
N LITTLE ROCK    N/A     78  43  28 W9G20     29.87S
JACKSONVILLE   SUNNY     82  43  25 W16       29.89S
CONWAY           N/A     79  43  27 W10G18    29.89F
SEARCY         FAIR      80  43  26 W13G23    29.87S
HOT SPRINGS    SUNNY     81  37  20 W12G23    29.94F
RUSSELLVILLE   SUNNY     75  41  29 W16       29.93R
CLINTON        FAIR      81  36  19 SW16      29.86F
$$

ARZ036-182100-
EAST ARKANSAS

CITY           SKY/WX    TMP DP  RH WIND       PRES   REMARKS
WEST MEMPHIS   FAIR      79  60  52 SW12G18   29.85F
$$

ARZ050-053-066-070-073-182100-
SOUTHWEST ARKANSAS

CITY           SKY/WX    TMP DP  RH WIND       PRES   REMARKS
ARKADELPHIA    FAIR      81  45  28 W13G20    29.94F
CAMDEN         FAIR      82  54  36 NW7G14    29.94S
TEXARKANA      SUNNY     80  48  32 NW12      29.99R
EL DORADO      LGT RAIN  79  62  56 W7G17     29.97F
DE QUEEN       SUNNY     79  40  24 NW12      29.97S
$$

ARZ056-057-069-182100-
SOUTHEAST ARKANSAS

CITY           SKY/WX    TMP DP  RH WIND       PRES   REMARKS
PINE BLUFF     FAIR      81  54  39 W13       29.92S
STUTTGART      FAIR      81  58  45 W16G25    29.90S
MONTICELLO     FAIR      79  62  56 SW9       29.94F

$$






USA.gov is the U.S. government's official web portal to all federal, state and local government web resources and services.